Regional Weather Roundup
Issued by NWS

Home | Current Version | Previous Version | Graphics & Text | Print | Product List | Glossary On
Versions: 1 2 3 4 5 6 7 8 9 10 11 12 13 14 15 16 17 18 19 20 21 22 23 24 25 26 27 28 29 30 31 32 33 34 35 36 37 38 39 40 41 42 43 44 45 46 47 48 49 50
000
ASUS43 KMPX 280101
RWRMN
WEATHER ROUNDUP FOR MINNESOTA
NATIONAL WEATHER SERVICE TWIN CITIES/CHANHASSEN MN
800 PM CDT SAT MAY 27 2017


NOTE: "FAIR" INDICATES FEW OR NO CLOUDS BELOW 12,000 FEET WITH NO
SIGNIFICANT WEATHER AND/OR OBSTRUCTIONS TO VISIBILITY. N/A MEANS
CURRENT SKY AND/OR WEATHER CONDITIONS ARE NOT AVAILABLE.

MNZ060>063-068>070-280200-
   Twin Cities Metro

CITY           SKY/WX    TMP DP  RH WIND       PRES   REMARKS
TWIN CITIES    MOCLDY    70  46  42 SW7       29.86S
ST PAUL        PTCLDY    67  49  52 SW6       29.86S
CRYSTAL        CLEAR     67  46  47 S7        29.84S
BLAINE         PTCLDY    70  50  49 SW6       29.85R
LAKEVILLE      CLEAR     66  46  48 CALM      29.87S
EDEN PRAIRIE   PTCLDY    68  47  46 SW5       29.85S
SOUTH ST PAUL  CLEAR     67  47  49 SW5       29.85F
LAKE ELMO      FAIR      64  52  63 SW5       29.87S
$$
MNZ001>005-007-008-013>017-022>024-027-028-280200-
   Northwest Minnesota

CITY           SKY/WX    TMP DP  RH WIND       PRES   REMARKS
BEMIDJI        LGT RAIN  62  48  59 N7        29.75R
HALLOCK        LGT RAIN  66  43  42 CALM      29.69S
ROSEAU         CLOUDY    64  46  52 SW5       29.69F
WARROAD        CLOUDY    66  45  45 SW6       29.70S
CROOKSTON      PTCLDY    63  50  63 NE3       29.71S
FOSSTON        CLOUDY    66  37  34 CALM      29.73S
DETROIT LAKES  MOCLDY    68  43  40 SW7G16    29.76S
MOORHEAD       CLOUDY    75  36  23 W16       29.72F
PARK RAPIDS    PTCLDY    67  38  34 S9        29.76S
MAHNOMEN       FAIR      68  39  34 SW5       29.72S
$$
MNZ006-009>011-018-025>026-280200-
   North Central Minnesota

CITY           SKY/WX    TMP DP  RH WIND       PRES   REMARKS
BAUDETTE       PTCLDY    64  42  44 SW6       29.70F
FLAG ISLAND    PTCLDY    64  43  45 CALM      29.67S
INTL FALLS     MOCLDY    67  39  35 W8        29.72F
WASKISH        PTCLDY    64  45  48 CALM      29.72R
BIG FORK       LGT RAIN  66  39  37 CALM      29.75R
LONGVILLE      PTCLDY    64  52  63 CALM      29.77F
GRAND RAPIDS   MOCLDY    66  42  41 SW14G24   29.79S
CRANE LAKE     CLOUDY    66  37  34 N6        29.76R
ORR            CLOUDY    68  34  28 CALM      29.71S
COOK           CLEAR     70  37  30 SW5       29.75S
WALKER         MOCLDY    67  42  40 S7        29.75F
$$
MNZ012-019>021-037-280200-
   Northeast Minnesota

CITY           SKY/WX    TMP DP  RH WIND       PRES   REMARKS
DULUTH         PTCLDY    68  42  38 SW8       29.79S
ELY            CLEAR     70  36  28 SW8       29.75S
HIBBING        CLEAR     68  39  34 SW7       29.76S
EVELETH        CLEAR     70  30  22 SW12      29.78R
DULUTH HARBOR  CLEAR     72  46  40 SW12      29.78R
TWO HARBORS    PTCLDY    73  48  40 W9        29.76R
SILVER BAY     PTCLDY    70  43  37 S7        29.75R
GRAND MARAIS     N/A     47  41  80 CALM      29.77R
G MARAIS ARPRT PTCLDY    63  36  36 S5        29.81R
$$
MNZ029>031-032-039>041-046>048-054>057-064-280200-
   West Central Minnesota

CITY           SKY/WX    TMP DP  RH WIND       PRES   REMARKS
FERGUS FALLS   CLOUDY    66  46  48 SW14G20   29.75S
WHEATON        PTCLDY    72  36  26 SW13G21   29.80S
MORRIS         MOCLDY    70  46  43 SW8       29.80S
ALEXANDRIA     PTCLDY    68  44  42 SW7       29.82F
ELBOW LAKE     FAIR      68  46  45 SW14      29.79S
WADENA         CLOUDY    66  43  42 SW7       29.78S
GLENWOOD       PTCLDY    70  45  40 S9        29.83S
APPLETON       CLOUDY    72  39  30 SW9       29.82S
BENSON         CLOUDY    70  43  37 SW12      29.84S
ORTONVILLE     MOCLDY    70  45  40 SW3       29.82S
MADISON        MOCLDY    72  43  35 SW8       29.84F
WILLMAR        FAIR      70  46  43 SW9       29.86S
$$
MNZ033>034-036-042>043-049>051-058-059-280200-
   Central Minnesota

CITY           SKY/WX    TMP DP  RH WIND       PRES   REMARKS
ST CLOUD       CLOUDY    67  46  47 SW6       29.83S
SAUK CENTRE    MOCLDY    67  44  42 SW7       29.82S
PAYNESVILLE    CLOUDY    68  45  43 SW3       29.84S
AITKIN         MOCLDY    66  45  45 S7        29.78S
PINE RIVER     CLOUDY    66  46  48 SW13      29.82R
BRAINERD       CLOUDY    67  44  43 S8        29.80S
STAPLES        PTCLDY    68  37  32 SW8       29.79S
LONG PRAIRIE   CLOUDY    68  43  40 S8        29.81F
LITTLE FALLS   MOCLDY    68  41  37 SW7       29.82S
LITCHFIELD     MOCLDY    70  46  43 CALM      29.85S
BUFFALO        CLOUDY    69  42  37 S3        29.85S
MAPLE LAKE     CLOUDY    68  49  51 CALM      29.85S
HUTCHINSON     MOCLDY    71  44  37 S3        29.86S
$$
MNZ037-044-045-052-053-280200-
   East Central Minnesota

CITY           SKY/WX    TMP DP  RH WIND       PRES   REMARKS
PRINCETON      MOCLDY    70  46  43 CALM      29.83S
MORA           PTCLDY    64  41  42 SW3       29.84R
CAMBRIDGE      PTCLDY    72  50  46 S5        29.82S
RUSH CITY      PTCLDY    68  45  43 S5        29.83S
MOOSE LAKE     CLEAR     66  43  42 SW5       29.79S
HINCKLEY       FAIR      64  50  59 SW5       29.82S
CLOQUET        CLEAR     68  37  32 SW7       29.80R
MCGREGOR       PTCLDY    68  43  40 CALM      29.80S
$$
MNZ071>073-080-081-089-090-097-098-280200-
   Southwest Minnesota

CITY           SKY/WX    TMP DP  RH WIND       PRES   REMARKS
MONTEVIDEO     CLOUDY    72  43  35 W7        29.84S
CANBY          CLOUDY    69  45  42 CALM      29.87S
MARSHALL       CLOUDY    68  47  46 W10       29.88R
REDWOOD FALLS  CLOUDY    70  42  36 W9        29.86R
OLIVIA         CLOUDY    70  45  40 W12       29.86R
PIPESTONE      MOCLDY    64  43  45 NW6       29.91R
WINDOM         CLOUDY    66  46  48 SW5       29.90R
WORTHINGTON    LGT RAIN  64  49  57 W7        29.92R
JACKSON        MOCLDY    64  48  55 CALM      29.91R
TRACY          CLOUDY    68  47  47 W3        29.89R
SLAYTON        PTCLDY    65  51  60 SW10      29.91R
$$
MNZ065>067-074>077-082>085-091>093-280200-
   South Central Minnesota

CITY           SKY/WX    TMP DP  RH WIND       PRES   REMARKS
MANKATO        CLEAR     69  45  41 S3        29.88S
NEW ULM        CLOUDY    66  45  45 SW5       29.87S
ST JAMES       PTCLDY    68  50  52 CALM      29.89S
FAIRMONT       CLEAR     68  43  40 CALM      29.89F
GLENCOE        PTCLDY    71  48  45 S3        29.85S
FARIBAULT      CLEAR     66  46  48 CALM      29.88F
OWATONNA       PTCLDY    63  46  55 CALM      29.89S
WASECA         CLEAR     68  41  37 CALM      29.90S
ALBERT LEA     CLOUDY    70  46  43 CALM      29.89S
$$
MNZ078>079-086>088-094>096-280200-
   Southeast Minnesota

CITY           SKY/WX    TMP DP  RH WIND       PRES   REMARKS
ROCHESTER      CLOUDY    64  51  62 CALM      29.90S
RED WING       CLEAR     68  43  40 CALM      29.87R
STANTON        CLEAR     68  45  43 W3        29.86S
DODGE CENTER   CLOUDY    64  39  39 CALM      29.90S
WINONA         DRIZZLE   61  55  82 CALM      29.89S
AUSTIN         MOCLDY    64  46  52 CALM      29.89F
PRESTON        LGT RAIN  60  55  83 CALM      29.91S
$$
ABBREVIATIONS USED IN REMARKS
   TC - TEMPERATURES IN CELSIUS
  WCI - WIND CHILL INDEX
   HX - HEAT INDEX
  VSB - VISIBILITY
$$



USA.gov is the U.S. government's official web portal to all federal, state and local government web resources and services.